Weather History for Pueblo, CO

Change the Weather History Date:

Friday, March 14, 2014

  Actual Average Record
Temperature  
Mean Temperature 49 °F 42 °F  
Max Temperature 61 °F 59 °F 83 °F (2003)
Min Temperature 36 °F 25 °F -1 °F (1895)
Degree Days  
Heating Degree Days 16 23  
Month to date heating degree days 336 349  
Since 1 July heating degree days 4541 4652  
Cooling Degree Days 0 0  
Month to date cooling degree days 0 0  
Year to date cooling degree days 0 0  
Moisture  
Dew Point 23 °F    
Average Humidity 45    
Maximum Humidity 70    
Minimum Humidity 19    
Precipitation  
Precipitation 0.00 in 0.03 in 0.48 in (1938)
Month to date precipitation 0.64 0.36  
Year to date precipitation 1.37 1.01  
Snow  
Snow 0.00 in 0.20 in 4.40 in (1956)
Month to date snowfall 1.0 2.3  
Since 1 July snowfall 19.6 24.1  
Snow Depth 0.00 in    
Sea Level Pressure  
Sea Level Pressure 29.92 in    
Wind  
Wind Speed 8 mph (SSW)    
Max Wind Speed 24 mph    
Max Gust Speed 30 mph    
Visibility 10 miles    
Events      
T = Trace of Precipitation, MM = Missing Value Source: NWS Daily Summary

Daily Weather History Graph

Daily Weather History Graph

Search for Another Location

Airport:

Trip Planner

Search our weather history database for the weather conditions in past years. The results will help you decide how hot, cold, wet, or windy it might be!

Date:

Astronomy

Mar. 14, 2014 Rise Set
Actual Time 7:10 AM MDT 7:04 PM MDT
Civil Twilight 6:44 AM MDT 7:30 PM MDT
Nautical Twilight 6:13 AM MDT 8:01 PM MDT
Astronomical Twilight 5:42 AM MDT 8:32 PM MDT
Moon 5:29 PM MDT (3/14) 5:50 AM MDT (3/14)
Length of Visible Light 12h 46m
Length of Day
11h 53m
Waxing Gibbous, 96% of the Moon is Illuminated
Mar 14
Waxing Gibbous
Mar 16
Full
Mar 23
Last Quarter
Mar 30
New
Apr 7
First Quarter

Hourly Weather History & Observations

Time (MDT) Temp. Windchill Dew Point Humidity Pressure Visibility Wind Dir Wind Speed Gust Speed Precip Events Conditions
12:53 AM 53.1 °F - 19.9 °F 27% 29.78 in 10.0 mi WNW 12.7 mph - N/A   Partly Cloudy
1:53 AM 51.1 °F - 21.0 °F 31% 29.82 in 10.0 mi NNW 8.1 mph - N/A   Clear
2:53 AM 46.9 °F - 19.9 °F 34% 29.88 in 10.0 mi NE 16.1 mph 27.6 mph N/A   Clear
3:53 AM 44.1 °F - 18.0 °F 35% 29.88 in 10.0 mi Calm Calm - N/A   Clear
4:53 AM 39.9 °F 35.1 °F 19.0 °F 43% 29.94 in 10.0 mi WSW 6.9 mph - N/A   Clear
5:53 AM 41.0 °F - 21.0 °F 45% 29.97 in 10.0 mi Calm Calm - N/A   Clear
6:53 AM 37.9 °F 33.5 °F 21.0 °F 51% 30.02 in 10.0 mi SSW 5.8 mph - N/A   Overcast
7:53 AM 37.9 °F 34.4 °F 21.9 °F 53% 30.04 in 10.0 mi WNW 4.6 mph - N/A   Clear
8:53 AM 44.1 °F 42.5 °F 23.0 °F 43% 30.04 in 10.0 mi WSW 3.5 mph - N/A   Clear
9:53 AM 46.9 °F - 21.0 °F 36% 30.05 in 10.0 mi SW 6.9 mph - N/A   Clear
10:53 AM 50.0 °F - 19.9 °F 31% 30.04 in 10.0 mi Variable 6.9 mph - N/A   Clear
11:53 AM 52.0 °F - 19.9 °F 28% 30.01 in 10.0 mi South 6.9 mph - N/A   Clear
12:53 PM 55.0 °F - 19.0 °F 24% 29.98 in 10.0 mi South 9.2 mph - N/A   Clear
1:53 PM 57.9 °F - 19.0 °F 22% 29.94 in 10.0 mi SE 15.0 mph 20.7 mph N/A   Clear
2:53 PM 59.0 °F - 18.0 °F 20% 29.90 in 10.0 mi SSE 20.7 mph 27.6 mph N/A   Clear
3:53 PM 60.1 °F - 18.0 °F 20% 29.88 in 10.0 mi South 15.0 mph 20.7 mph N/A   Clear
4:53 PM 61.0 °F - 19.0 °F 20% 29.86 in 10.0 mi SSE 12.7 mph - N/A   Clear
5:53 PM 61.0 °F - 21.0 °F 21% 29.84 in 10.0 mi SSE 12.7 mph - N/A   Clear
6:53 PM 55.9 °F - 32.0 °F 40% 29.86 in 10.0 mi South 16.1 mph - N/A   Clear
7:53 PM 53.1 °F - 32.0 °F 45% 29.87 in 10.0 mi SSE 4.6 mph - N/A   Clear
8:53 PM 50.0 °F - 33.1 °F 52% 29.86 in 10.0 mi SSW 5.8 mph - N/A   Clear
9:53 PM 46.0 °F 43.9 °F 32.0 °F 58% 29.85 in 10.0 mi West 4.6 mph - N/A   Clear
10:53 PM 39.9 °F 37.8 °F 30.0 °F 68% 29.86 in 10.0 mi North 3.5 mph - N/A   Clear
11:53 PM 43.0 °F 37.2 °F 30.0 °F 60% 29.83 in 10.0 mi NNW 10.4 mph - N/A   Clear